This is the latest recevied weather packets stored in our database for station/object JF7BTK-10. If no packets are shown the sender has not sent any weather packets the latest 10 day(s).
| Time | Temp. | Humidity | Pressure | Rain* | Wind** | Luminosity | Snow |
|---|---|---|---|---|---|---|---|
| 1778334398 | 8.89° C | 87% | 1008.7 hPa | 0 mm | - | - | - |
| 1778333498 | 8.89° C | 88% | 1008.3 hPa | 0 mm | - | - | - |
| 1778332599 | 8.89° C | 88% | 1008.4 hPa | 0 mm | - | - | - |
| 1778331378 | 8.33° C | 86% | 1008.4 hPa | 0 mm | - | - | - |
| 1778329897 | 8.89° C | 85% | 1008 hPa | 0 mm | - | - | - |
| 1778328978 | 8.89° C | 85% | 1008.2 hPa | 0 mm | - | - | - |
| 1778328099 | 8.89° C | 84% | 1008 hPa | 0 mm | - | - | - |
| 1778327198 | 10° C | 84% | 1007.7 hPa | 0 mm | - | - | - |
| 1778326298 | 10° C | 85% | 1007.5 hPa | 0 mm | - | - | - |
| 1778324499 | 10° C | 85% | 1007.2 hPa | 0 mm | - | - | - |
| 1778323599 | 10° C | 85% | 1007.2 hPa | 0 mm | - | - | - |
| 1778322699 | 10° C | 84% | 1006.8 hPa | 0 mm | - | - | - |
| 1778321799 | 10.56° C | 83% | 1006.5 hPa | 0 mm | - | - | - |
| 1778320898 | 10.56° C | 82% | 1006.5 hPa | 0 mm | - | - | - |
| 1778319998 | 10.56° C | 82% | 1006.4 hPa | 0 mm | - | - | - |
| 1778319099 | 10.56° C | 82% | 1006.2 hPa | 0 mm | - | - | - |
| 1778318198 | 11.11° C | 82% | 1005.9 hPa | 0 mm | - | - | - |
| 1778317299 | 10.56° C | 81% | 1005.7 hPa | 0 mm | - | - | - |
| 1778316399 | 11.11° C | 81% | 1005.6 hPa | 0 mm | - | - | - |
| 1778315498 | 11.11° C | 80% | 1005.3 hPa | 0 mm | - | - | - |
| 1778314598 | 11.67° C | 80% | 1005.1 hPa | 0 mm | - | - | - |
| 1778313698 | 11.11° C | 79% | 1005 hPa | 0 mm | - | - | - |
| 1778312799 | 11.67° C | 79% | 1004.8 hPa | 0 mm | - | - | - |
| 1778311899 | 11.11° C | 80% | 1004.7 hPa | 0 mm | - | - | - |
| 1778311579 | 11.11° C | 80% | 1004.7 hPa | 0 mm | - | - | - |
* Rain latest hour (hover to see other rain measurements)
** Current wind speed in m/s (hover to see current wind gust speed)